Time,TemperatureF,DewpointF,PressureIn,WindDirection,WindDirectionDegrees,WindSpeedMPH,WindSpeedGustMPH,Humidity,HourlyPrecipIn,Conditions,Clouds,dailyrainin,SoftwareType,DateUTC
2013-06-15 00:00:00,56.2,52.1,29.98,West,278,0.0,0.0,86,0.00,CLR,,0.00,WeatherDisplay:10.37,2013-06-15 04:00:00,
2013-06-15 00:15:00,55.6,51.5,29.98,West,278,0.0,1.0,86,0.00,CLR,,0.00,WeatherDisplay:10.37,2013-06-15 04:15:00,
2013-06-15 00:30:00,55.2,51.1,29.99,West,278,0.0,0.0,86,0.00,CLR,,0.00,WeatherDisplay:10.37,2013-06-15 04:30:00,
2013-06-15 00:45:00,54.8,50.7,29.99,West,278,0.0,0.0,86,0.00,CLR,,0.00,WeatherDisplay:10.37,2013-06-15 04:45:00,
2013-06-15 01:00:00,54.4,50.3,30.00,West,278,0.0,0.0,86,0.00,CLR,,0.00,WeatherDisplay:10.37,2013-06-15 05:00:00,
2013-06-15 01:15:00,54.2,50.4,30.00,West,278,0.0,0.0,87,0.00,CLR,,0.00,WeatherDisplay:10.37,2013-06-15 05:15:00,
2013-06-15 01:30:00,53.9,50.1,30.00,West,278,0.0,0.0,87,0.00,CLR,,0.00,WeatherDisplay:10.37,2013-06-15 05:30:00,
2013-06-15 01:45:00,53.6,49.8,30.00,West,278,0.0,0.0,87,0.00,CLR,,0.00,WeatherDisplay:10.37,2013-06-15 05:45:00,
2013-06-15 02:00:00,53.3,49.5,30.00,West,278,0.0,0.0,87,0.00,CLR,,0.00,WeatherDisplay:10.37,2013-06-15 06:00:00,
2013-06-15 02:15:00,53.0,49.2,30.01,West,278,0.0,0.0,87,0.00,CLR,,0.00,WeatherDisplay:10.37,2013-06-15 06:15:00,
2013-06-15 02:30:00,52.8,49.0,30.01,West,278,0.0,0.0,87,0.00,CLR,,0.00,WeatherDisplay:10.37,2013-06-15 06:30:00,
2013-06-15 02:45:00,53.0,49.2,30.01,West,278,0.0,0.0,87,0.00,CLR,,0.00,WeatherDisplay:10.37,2013-06-15 06:45:00,
2013-06-15 03:00:00,53.1,49.3,30.00,West,278,0.0,0.0,87,0.00,CLR,,0.00,WeatherDisplay:10.37,2013-06-15 07:00:00,
2013-06-15 03:15:00,52.9,49.4,30.00,West,278,0.0,0.0,88,0.00,CLR,,0.00,WeatherDisplay:10.37,2013-06-15 07:15:00,
2013-06-15 03:30:00,52.6,48.8,30.00,West,277,0.0,0.0,87,0.00,CLR,,0.00,WeatherDisplay:10.37,2013-06-15 07:30:00,
2013-06-15 03:45:00,52.3,48.9,30.00,West,278,0.0,0.0,88,0.00,CLR,,0.00,WeatherDisplay:10.37,2013-06-15 07:45:00,
2013-06-15 04:00:00,51.9,48.2,30.00,West,278,0.0,1.0,87,0.00,CLR,,0.00,WeatherDisplay:10.37,2013-06-15 08:00:00,
2013-06-15 04:15:00,51.7,48.2,30.00,West,278,0.0,0.0,88,0.00,CLR,,0.00,WeatherDisplay:10.37,2013-06-15 08:15:00,
2013-06-15 04:30:00,51.4,48.0,30.01,West,278,0.0,0.0,88,0.00,CLR,,0.00,WeatherDisplay:10.37,2013-06-15 08:30:00,
2013-06-15 04:45:00,51.2,47.8,30.01,West,278,0.0,0.0,88,0.00,CLR,,0.00,WeatherDisplay:10.37,2013-06-15 08:45:00,
2013-06-15 05:00:00,51.0,47.6,30.01,West,278,0.0,0.0,88,0.00,CLR,,0.00,WeatherDisplay:10.37,2013-06-15 09:00:00,
2013-06-15 05:15:00,50.8,47.4,30.02,West,278,0.0,0.0,88,0.00,CLR,,0.00,WeatherDisplay:10.37,2013-06-15 09:15:00,
2013-06-15 05:30:00,50.6,47.2,30.03,West,278,0.0,0.0,88,0.00,CLR,,0.00,WeatherDisplay:10.37,2013-06-15 09:30:00,
2013-06-15 05:45:00,50.4,47.0,30.04,West,278,0.0,0.0,88,0.00,CLR,,0.00,WeatherDisplay:10.37,2013-06-15 09:45:00,
2013-06-15 06:00:00,50.3,46.8,30.05,West,278,0.0,0.0,88,0.00,CLR,,0.00,WeatherDisplay:10.37,2013-06-15 10:00:00,
2013-06-15 06:15:00,50.3,46.9,30.05,West,278,0.0,1.0,88,0.00,CLR,,0.00,WeatherDisplay:10.37,2013-06-15 10:15:00,
2013-06-15 06:30:00,50.1,46.7,30.06,West,278,0.0,0.0,88,0.00,CLR,,0.00,WeatherDisplay:10.37,2013-06-15 10:30:00,
2013-06-15 06:45:00,50.1,46.7,30.07,West,278,0.0,0.0,88,0.00,FEW,,0.00,WeatherDisplay:10.37,2013-06-15 10:45:00,
2013-06-15 07:00:00,50.6,47.2,30.07,West,278,0.0,0.0,88,0.00,FEW,,0.00,WeatherDisplay:10.37,2013-06-15 11:00:00,
2013-06-15 07:15:00,51.0,47.9,30.07,West,278,0.0,0.0,89,0.00,FEW,,0.00,WeatherDisplay:10.37,2013-06-15 11:15:00,
2013-06-15 07:30:00,51.7,48.6,30.07,West,278,0.0,0.0,89,0.00,FEW,,0.00,WeatherDisplay:10.37,2013-06-15 11:30:00,
2013-06-15 07:45:00,52.4,49.3,30.08,West,278,0.0,0.0,89,0.00,SCT,,0.00,WeatherDisplay:10.37,2013-06-15 11:45:00,
2013-06-15 08:00:00,53.7,50.6,30.08,West,278,0.0,0.0,89,0.00,SCT,,0.00,WeatherDisplay:10.37,2013-06-15 12:00:00,
2013-06-15 08:15:00,54.9,51.7,30.08,West,278,0.0,0.0,89,0.00,SCT,,0.00,WeatherDisplay:10.37,2013-06-15 12:15:00,
2013-06-15 08:30:00,56.3,53.1,30.08,West,278,0.0,0.0,89,0.00,SCT,,0.00,WeatherDisplay:10.37,2013-06-15 12:30:00,
2013-06-15 08:45:00,58.0,54.4,30.08,West,278,0.0,0.0,88,0.00,CLR,,0.00,WeatherDisplay:10.37,2013-06-15 12:45:00,
2013-06-15 09:00:00,59.7,55.5,30.09,West,278,0.0,0.0,86,0.00,CLR,,0.00,WeatherDisplay:10.37,2013-06-15 13:00:00,
2013-06-15 09:15:00,61.9,57.3,30.09,West,278,0.0,0.0,85,0.00,CLR,,0.00,WeatherDisplay:10.37,2013-06-15 13:15:00,
2013-06-15 09:30:00,63.5,57.6,30.08,NE,39,0.0,0.0,81,0.00,CLR,,0.00,WeatherDisplay:10.37,2013-06-15 13:30:00,
2013-06-15 09:45:00,64.9,58.3,30.08,ENE,62,0.0,0.0,79,0.00,CLR,,0.00,WeatherDisplay:10.37,2013-06-15 13:45:00,
2013-06-15 10:00:00,66.3,58.9,30.08,ENE,67,0.0,0.0,77,0.00,CLR,,0.00,WeatherDisplay:10.37,2013-06-15 14:00:00,
2013-06-15 10:15:00,67.7,59.9,30.07,ENE,67,0.0,0.0,76,0.00,CLR,,0.00,WeatherDisplay:10.37,2013-06-15 14:15:00,
2013-06-15 10:30:00,68.6,59.6,30.07,ENE,64,0.0,1.0,73,0.00,CLR,,0.00,WeatherDisplay:10.37,2013-06-15 14:30:00,
2013-06-15 10:45:00,69.9,60.1,30.06,NE,54,0.0,2.0,71,0.00,SCT,,0.00,WeatherDisplay:10.37,2013-06-15 14:45:00,
2013-06-15 11:00:00,71.1,59.1,30.06,NE,56,0.0,3.0,66,0.00,SCT,,0.00,WeatherDisplay:10.37,2013-06-15 15:00:00,
2013-06-15 11:15:00,71.8,60.3,30.06,ENE,65,0.0,4.0,67,0.00,SCT,,0.00,WeatherDisplay:10.37,2013-06-15 15:15:00,
2013-06-15 11:30:00,72.8,60.8,30.06,ENE,65,3.0,5.0,66,0.00,SCT,,0.00,WeatherDisplay:10.37,2013-06-15 15:30:00,
2013-06-15 11:45:00,73.8,60.4,30.06,ESE,113,1.0,6.0,63,0.00,CLR,,0.00,WeatherDisplay:10.37,2013-06-15 15:45:00,
2013-06-15 12:00:00,74.3,60.4,30.06,East,79,0.0,4.0,62,0.00,CLR,,0.00,WeatherDisplay:10.37,2013-06-15 16:00:00,
2013-06-15 12:15:00,75.3,59.9,30.05,ENE,78,0.0,3.0,59,0.00,CLR,,0.00,WeatherDisplay:10.37,2013-06-15 16:15:00,
2013-06-15 12:30:00,76.0,60.2,30.05,ENE,62,0.0,5.0,58,0.00,CLR,,0.00,WeatherDisplay:10.37,2013-06-15 16:30:00,
2013-06-15 12:45:00,76.1,60.2,30.05,ENE,72,0.0,6.0,58,0.00,CLR,,0.00,WeatherDisplay:10.37,2013-06-15 16:45:00,
2013-06-15 13:00:00,75.0,58.3,30.05,ENE,76,0.0,4.0,56,0.00,CLR,,0.00,WeatherDisplay:10.37,2013-06-15 17:00:00,
2013-06-15 13:15:00,76.4,61.9,30.05,ENE,72,0.0,0.0,61,0.00,CLR,,0.00,WeatherDisplay:10.37,2013-06-15 17:15:00,
2013-06-15 13:30:00,77.5,61.1,30.04,ENE,68,0.0,5.0,57,0.00,CLR,,0.00,WeatherDisplay:10.37,2013-06-15 17:30:00,
2013-06-15 13:45:00,76.8,58.4,30.04,SSW,194,0.0,5.0,53,0.00,SCT,,0.00,WeatherDisplay:10.37,2013-06-15 17:45:00,
2013-06-15 14:00:00,77.9,58.9,30.03,SSE,150,0.0,0.0,52,0.00,SCT,,0.00,WeatherDisplay:10.37,2013-06-15 18:00:00,
2013-06-15 14:15:00,78.3,60.3,30.03,West,268,0.0,4.0,54,0.00,SCT,,0.00,WeatherDisplay:10.37,2013-06-15 18:15:00,
2013-06-15 14:30:00,78.7,60.1,30.03,NNW,339,0.0,9.0,53,0.00,SCT,,0.00,WeatherDisplay:10.37,2013-06-15 18:30:00,
2013-06-15 14:45:00,78.3,58.7,30.02,West,269,0.0,5.0,51,0.00,SCT,,0.00,WeatherDisplay:10.37,2013-06-15 18:45:00,
2013-06-15 15:00:00,78.9,61.9,30.02,North,3,0.0,2.0,56,0.00,SCT,,0.00,WeatherDisplay:10.37,2013-06-15 19:00:00,
2013-06-15 15:15:00,79.4,59.7,30.02,East,83,0.0,4.0,51,0.00,SCT,,0.00,WeatherDisplay:10.37,2013-06-15 19:15:00,
2013-06-15 15:30:00,78.7,60.1,30.02,East,84,0.0,6.0,53,0.00,SCT,,0.00,WeatherDisplay:10.37,2013-06-15 19:30:00,
2013-06-15 15:45:00,77.8,61.3,30.02,East,83,0.0,2.0,57,0.00,FEW,,0.00,WeatherDisplay:10.37,2013-06-15 19:45:00,
2013-06-15 16:00:00,78.7,60.7,30.01,ENE,71,0.0,3.0,54,0.00,FEW,,0.00,WeatherDisplay:10.37,2013-06-15 20:00:00,
2013-06-15 16:15:00,79.1,61.0,30.01,NE,49,0.0,0.0,54,0.00,FEW,,0.00,WeatherDisplay:10.37,2013-06-15 20:15:00,
2013-06-15 16:30:00,79.6,60.4,30.01,WNW,301,0.0,4.0,52,0.00,FEW,,0.00,WeatherDisplay:10.37,2013-06-15 20:30:00,
2013-06-15 16:45:00,79.8,64.7,30.01,West,270,0.0,3.0,60,0.00,CLR,,0.00,WeatherDisplay:10.37,2013-06-15 20:45:00,
2013-06-15 17:00:00,79.6,61.0,30.00,WNW,282,0.0,2.0,53,0.00,CLR,,0.00,WeatherDisplay:10.37,2013-06-15 21:00:00,
2013-06-15 17:15:00,79.4,62.3,30.00,NW,305,0.0,1.0,56,0.00,CLR,,0.00,WeatherDisplay:10.37,2013-06-15 21:15:00,
2013-06-15 17:30:00,79.7,63.1,29.99,WNW,297,0.0,2.0,57,0.00,CLR,,0.00,WeatherDisplay:10.37,2013-06-15 21:30:00,
2013-06-15 17:45:00,78.7,62.2,29.98,WNW,295,0.0,3.0,57,0.00,FEW,,0.00,WeatherDisplay:10.37,2013-06-15 21:45:00,
2013-06-15 18:00:00,77.6,64.0,29.98,WNW,298,0.0,3.0,63,0.00,FEW,,0.00,WeatherDisplay:10.37,2013-06-15 22:00:00,
2013-06-15 18:15:00,77.2,64.5,29.98,WNW,297,0.0,1.0,65,0.00,FEW,,0.00,WeatherDisplay:10.37,2013-06-15 22:15:00,
2013-06-15 18:30:00,76.9,63.8,29.98,WNW,283,0.0,4.0,64,0.00,FEW,,0.00,WeatherDisplay:10.37,2013-06-15 22:30:00,
2013-06-15 18:45:00,76.8,63.3,29.98,WNW,290,0.0,3.0,63,0.00,CLR,,0.00,WeatherDisplay:10.37,2013-06-15 22:45:00,
2013-06-15 19:00:00,76.0,62.5,29.98,West,276,0.0,2.0,63,0.00,CLR,,0.00,WeatherDisplay:10.37,2013-06-15 23:00:00,
2013-06-15 19:15:00,75.5,64.2,29.99,WNW,294,0.0,2.0,68,0.00,CLR,,0.00,WeatherDisplay:10.37,2013-06-15 23:15:00,
2013-06-15 19:30:00,73.4,63.8,29.99,West,281,0.0,1.0,72,0.00,CLR,,0.00,WeatherDisplay:10.37,2013-06-15 23:30:00,
2013-06-15 19:45:00,71.3,63.3,29.99,West,280,0.0,0.0,76,0.00,FEW,,0.00,WeatherDisplay:10.37,2013-06-15 23:45:00,
2013-06-15 20:00:00,70.0,63.2,30.00,West,273,0.0,3.0,79,0.00,FEW,,0.00,WeatherDisplay:10.37,2013-06-16 00:00:00,
2013-06-15 20:14:00,69.3,62.5,29.99,West,271,0.0,4.0,79,0.00,FEW,,0.00,WeatherDisplay:10.37,2013-06-16 00:14:00,
2013-06-15 20:30:00,69.2,61.7,29.99,West,280,3.0,6.0,77,0.00,FEW,,0.00,WeatherDisplay:10.37,2013-06-16 00:30:00,
2013-06-15 20:45:00,69.7,61.0,29.98,West,268,2.0,7.0,74,0.00,FEW,,0.00,WeatherDisplay:10.37,2013-06-16 00:45:00,
2013-06-15 21:00:00,70.1,61.4,29.98,WNW,286,0.0,7.0,74,0.00,FEW,,0.00,WeatherDisplay:10.37,2013-06-16 01:00:00,
2013-06-15 21:14:00,70.0,61.3,29.99,West,271,0.0,10.0,74,0.00,FEW,,0.00,WeatherDisplay:10.37,2013-06-16 01:14:00,
2013-06-15 21:30:00,69.9,62.0,30.00,West,265,0.0,12.0,76,0.00,FEW,,0.00,WeatherDisplay:10.37,2013-06-16 01:30:00,
2013-06-15 21:45:00,68.8,62.0,30.00,NW,304,1.0,5.0,79,0.00,CLR,,0.00,WeatherDisplay:10.37,2013-06-16 01:45:00,
2013-06-15 22:00:00,67.5,61.5,30.01,NW,304,1.0,3.0,81,0.00,CLR,,0.00,WeatherDisplay:10.37,2013-06-16 02:00:00,
2013-06-15 22:15:00,66.2,60.6,30.02,WNW,303,0.0,2.0,82,0.00,CLR,,0.00,WeatherDisplay:10.37,2013-06-16 02:15:00,
2013-06-15 22:30:00,65.5,60.2,30.03,WNW,303,0.0,2.0,83,0.00,CLR,,0.00,WeatherDisplay:10.37,2013-06-16 02:30:00,
2013-06-15 22:45:00,64.8,59.5,30.03,WNW,302,0.0,1.0,83,0.00,CLR,,0.00,WeatherDisplay:10.37,2013-06-16 02:45:00,
2013-06-15 23:00:00,64.2,59.3,30.03,WNW,302,0.0,1.0,84,0.00,CLR,,0.00,WeatherDisplay:10.37,2013-06-16 03:00:00,
2013-06-15 23:15:00,63.8,59.2,30.03,WNW,302,0.0,1.0,85,0.00,CLR,,0.00,WeatherDisplay:10.37,2013-06-16 03:15:00,
2013-06-15 23:30:00,63.3,58.7,30.03,WNW,302,0.0,0.0,85,0.00,CLR,,0.00,WeatherDisplay:10.37,2013-06-16 03:30:00,
2013-06-15 23:45:00,62.8,58.2,30.04,WNW,302,0.0,0.0,85,0.00,SCT,,0.00,WeatherDisplay:10.37,2013-06-16 03:45:00,